Tracking 23762 objects as of 22-Oct-2021
HD Live streaming from Space Station
objects crossing your sky now

GONETS M 17

Track GONETS M 17 now!
10-day predictions


NORAD ID: 46486
Int'l Code: 2020-068A
Perigee: 1,482.3 km
Apogee: 1,520.9 km
Inclination: 82.5 °
Period: 115.9 minutes
Semi major axis: 7872 km
RCS: Unknown
Launch date: September 28, 2020
Source: Commonwealth of Independent States (former USSR) (CIS)
Launch site: PLESETSK MISSILE AND SPACE COMPLEX (PKMTR)
aabbcc
Your satellite tracking list
Your tracking list is empty




NASA's NSSDC Master Catalog

Two Line Element Set (TLE):
1 46486U 20068A   21294.66637836  .00000015  00000-0  34750-4 0  9996
2 46486  82.4987 324.7382 0024474 139.0458 221.2467 12.42868362 48220
Source of the keplerian elements: AFSPC